Regional Weather Roundup
Issued by NWS

Home | Current Version | Previous Version | Graphics & Text | Print | Product List | Glossary On
Versions: 1 2 3 4 5 6 7 8 9 10 11 12 13 14 15 16 17 18 19 20 21 22 23 24 25 26 27 28 29 30 31 32 33 34 35 36 37 38 39 40 41 42 43 44 45 46 47 48 49 50
000
ASUS43 KLOT 012258
RWRIL

ILLINOIS REGIONAL WEATHER ROUNDUP
NATIONAL WEATHER SERVICE CHICAGO/ROMEOVILLE IL
600 PM CDT MON SEP 01 2014

NOTE: "FAIR" INDICATES FEW OR NO CLOUDS BELOW 12,000 FEET WITH NO
SIGNIFICANT WEATHER AND/OR OBSTRUCTIONS TO VISIBILITY.

* THESE STATIONS ARE NOT UNDER NWS QUALITY CONTROL. THEY ALSO MAY NOT
  REPORT WEATHER SUCH AS PRECIPITATION OR FOG.

ILZ001-002-007-009-015-016-024-020000-
NORTHWEST ILLINOIS

CITY           SKY/WX    TMP DP  RH WIND       PRES   REMARKS
MOLINE         SUNNY     80  66  62 SW10G22   29.80R HX  82
$$

ILZ003-004-008-010-011-017-018-020000-
NORTH CENTRAL ILLINOIS

CITY           SKY/WX    TMP DP  RH WIND       PRES   REMARKS
ROCKFORD       NOT AVBL
$$

ILZ005-006-012>014-019>023-020000-
NORTHEAST ILLINOIS

CITY           SKY/WX    TMP DP  RH WIND       PRES   REMARKS
CHICAGO-OHARE  MOSUNNY   81  63  54 SW16G25   29.77R HX  82
CHICAGO-MIDWAY PTSUNNY   83  67  58 SW21      29.78R HX  85
AURORA         SUNNY     80  65  59 SW16G23   29.79S HX  82
WAUKEGAN       MOSUNNY   80  65  59 SW14G21   29.75R HX  82
DUPAGE AIRPORT SUNNY     80  65  59 SW13G25   29.78S HX  82
WHEELING       MOSUNNY   82  63  52 SW15G25   29.78R HX  83
NORTHERLY ISL    N/A     82  62  50 S10         N/A  HX  83
$$

LMZ740>746-020000-
SOUTHERN LAKE MICHIGAN

STATION/POSITION SKY/WX   TEMP    WIND        PRES    VSBY  WAVE
                          AIR SEA DIR/SP/G                  HT/PER
                          (F)     (DEG/KT/KT) (MB)    (MI)  (FT/S)
SOUTHERN BUOY              74 70  220/ 12/ 14 1006.4S         2/ 5
WAUKEGAN HARBOR            80     240/ 14/ 19   N/A
HARRISON CRIB              80     240/ 14/ 18   N/A
BURNHAM HARBOR             81     240/  8/ 16   N/A
CALUMET HARBOR             81     220/  8/ 15 1007.3R
MICHIGAN CITY              78     230/ 17/ 20   N/A
MICHIGAN CITY 6N           76 72  240/ 12/ 16   N/A           2/ 3
ST. JOSEPH                 75 72  220/ 10/ 14   N/A           2/ 4
$$

ILZ025>027-034>036-040-047-049-050-058-095>099-020000-
WEST-CENTRAL ILLINOIS

CITY           SKY/WX    TMP DP  RH WIND       PRES   REMARKS
$$

ILZ028>032-037-038-041>044-048-051>054-059>061-020000-
CENTRAL ILLINOIS

CITY           SKY/WX    TMP DP  RH WIND       PRES   REMARKS
PEORIA         NOT AVBL
SPRINGFIELD    SUNNY     83  66  56 SW8       29.87R HX  85
TAYLORVILLE    NOT AVBL
$$

ILZ033-039-045-046-055>057-062-063-020000-
EAST-CENTRAL ILLINOIS

CITY           SKY/WX    TMP DP  RH WIND       PRES   REMARKS
CHAMPAIGN      MOSUNNY   79  65  62 SW12      29.88R HX  81
$$

ILZ079-100>102-020000-
SOUTHWEST ILLINOIS

CITY           SKY/WX    TMP DP  RH WIND       PRES   REMARKS
CAHOKIA*       SUNNY     85  67  54 VRB3      29.90S HX  87
$$

ILZ064>066-069>071-074>076-080>082-084>086-088>090-092>094-020000-
SOUTH-CENTRAL ILLINOIS

CITY           SKY/WX    TMP DP  RH WIND       PRES   REMARKS
CARBONDALE     MOSUNNY   82  70  66 SW8       29.93S HX  86
MARION         MOSUNNY   82  72  69 SW9       29.95R HX  87
$$

ILZ067-068-072-073-078-083-087-091-020000-
SOUTHEAST ILLINOIS

CITY           SKY/WX    TMP DP  RH WIND       PRES   REMARKS
$$

ABBREVIATIONS USED IN REMARKS
   TC - TEMPERATURE IN CELSIUS
  WCI - WIND CHILL INDEX
   HX - HEAT INDEX
  VSB - VISIBILITY
$$



USA.gov is the U.S. government's official web portal to all federal, state and local government web resources and services.